Showing default

TECHNOSAT, 42829

Orbit data source: Space-Track

TECHNOSAT, 42829 is a payload satellite owned by TUB (DE) in SSO that was launched on Fri, 14 Jul 2017 UTC via a SOYUZ-2-1A launch vehicle from the Tyuratam Missile And Space Complex (TTMTR). Payload-class satellites include a variety of spacecraft equipped with specific instruments for various scientific and technological missions. These include communications satellites like Starlink; space stations such as the ISS; scientific satellites like the Hubble; Earth observation satellites from companies like Planet Labs, Umbra, and HawkEye 360; GPS; miniature CubeSats for education and research; and military/defense satellites.

Loading next visibility...
Identifier
42829, 2017-042E
Orbit
SSO
Country
Flag of DEDE / GER
Related business
Manufacturer
TUB
Mission
Operational Amateur Technology
Bus & Motor
TUBIX20, Unknown motor
Mass
18 kg wet, 18 kg dry
Launch date (UTC)
2017-07-14 (8 years ago)
Launch vehicle
SOYUZ-2-1A
Launch site
Tyuratam Missile And Space Complex (TTMTR)
Object type
Payload
Rocket body
Debris
Shape & HBR
Oct Cyl, 1.0 m
Radar Cross Section
0.175 m², Medium (>0.1 m² and < 1m²)

Expand to show TLE details & history
Last TLE update: 5 hours ago

TLE from 5 hours ago
0 TECHNOSAT
1 42829U 17042E   25293.60482828  .00008105  00000-0  60769-3 0  9993
2 42829  97.4016  96.1311 0018449 190.3781 169.7067 15.02782792450693
Epoch: 2025-10-20T14:30Z
TLE epoch observation values (Epoch: 2025-10-20T14:30:57.163Z)
Latitude
0.00002°
Longitude
-150.91183°
Altitude
573.982 km
Speed
7.567 km/s
True Right ascension
06h 24m 31s
True Declination
0° 00' 00"
Sunlit
Object was in daylight at epoch
Visualization orbit readout
Latitude
Unknown
Longitude
Unknown
Altitude
Unknown
Speed
Unknown
Apparent Right ascension
Unknown
Apparent Declination
Unknown
Sunlit
N/A
Visualization observer readout
Local Sidereal Time
14:03:31
Azimuth
Unknown
Elevation
Unknown
Doppler factor
Unknown
Orbital elements
Apogee altitude
568.1 km
Perigee altitude
542.517 km
Semi-major axis
6,933.446 km
Eccentricity
0.00184
Inclination
97.4016°
RAAN
96.1311°
Arg. of periapsis
190.3781°
True anomaly
169.74439°
Mean anomaly
169.7067°
Eccentric anomaly
169.72555°
Mean motion
3.75941 °/min
Orbital period
95.76 mins
BSTAR
0.00060769
Loading maneuver chart data...
Computing Atmospheric mass density...

Documentation

Showing up to 5 results
|